Tracking 23726 objects as of 24-Sep-2021
HD Live streaming from Space Station
objects crossing your sky now

STARLINK-2427

Track STARLINK-2427 now!
10-day predictions
STARLINK-2427 is classified as:


NORAD ID: 47837
Int'l Code: 2021-018BC
Perigee: 553.5 km
Apogee: 555.1 km
Inclination: 53.1 °
Period: 95.6 minutes
Semi major axis: 6925 km
RCS: Unknown
Launch date: March 11, 2021
Source: United States (US)
Launch site: AIR FORCE EASTERN TEST RANGE (AFETR)
aabbcc
Your satellite tracking list
Your tracking list is empty




NASA's NSSDC Master Catalog

Two Line Element Set (TLE):
1 47837U 21018BC  21266.60482686  .00002684  00000-0  19898-3 0  9996
2 47837  53.0591 340.3668 0001130 100.6021 259.5096 15.06410531 31498
Source of the keplerian elements: AFSPC